Time,TemperatureF,DewpointF,PressureIn,WindDirection,WindDirectionDegrees,WindSpeedMPH,WindSpeedGustMPH,Humidity,HourlyPrecipIn,Conditions,Clouds,dailyrainin,SoftwareType,DateUTC
2013-03-01 00:02:00,24.0,20.0,-100.00,West,270,6.0,16.0,88,0.00,,,-99.99,,2013-03-01 07:02:00,
2013-03-01 00:11:00,24.0,21.0,-100.00,West,275,9.0,19.0,88,0.00,,,-99.99,,2013-03-01 07:11:00,
2013-03-01 00:22:00,24.0,21.0,-100.00,West,270,6.0,17.0,88,0.00,,,-99.99,,2013-03-01 07:22:00,
2013-03-01 00:32:00,23.0,21.0,-100.00,West,275,7.0,11.0,89,0.00,,,-99.99,,2013-03-01 07:32:00,
2013-03-01 00:42:00,23.0,21.0,-100.00,WNW,285,7.0,12.0,90,0.00,,,-99.99,,2013-03-01 07:42:00,
2013-03-01 00:52:00,23.0,21.0,-100.00,WSW,245,2.0,14.0,90,0.00,,,-99.99,,2013-03-01 07:52:00,
2013-03-01 01:02:00,23.0,21.0,-100.00,WNW,285,9.0,13.0,90,0.00,,,-99.99,,2013-03-01 08:02:00,
2013-03-01 01:11:00,23.0,21.0,-100.00,NW,305,6.0,14.0,90,0.00,,,-99.99,,2013-03-01 08:11:00,
2013-03-01 01:22:00,23.0,21.0,-100.00,WNW,295,7.0,11.0,91,0.00,,,-99.99,,2013-03-01 08:22:00,
2013-03-01 01:32:00,23.0,21.0,-100.00,WNW,290,4.0,9.0,91,0.00,,,-99.99,,2013-03-01 08:32:00,
2013-03-01 01:42:00,23.0,21.0,-100.00,WNW,295,6.0,9.0,91,0.00,,,-99.99,,2013-03-01 08:42:00,
2013-03-01 01:52:00,23.0,21.0,-100.00,WNW,295,9.0,12.0,92,0.00,,,-99.99,,2013-03-01 08:52:00,
2013-03-01 02:02:00,23.0,21.0,-100.00,WNW,295,11.0,14.0,92,0.00,,,-99.99,,2013-03-01 09:02:00,
2013-03-01 02:12:00,23.0,21.0,-100.00,WNW,285,11.0,15.0,92,0.00,,,-99.99,,2013-03-01 09:12:00,
2013-03-01 02:22:00,23.0,21.0,-100.00,WNW,290,9.0,16.0,92,0.00,,,-99.99,,2013-03-01 09:22:00,
2013-03-01 02:32:00,22.0,21.0,-100.00,WNW,290,9.0,13.0,92,0.00,,,-99.99,,2013-03-01 09:32:00,
2013-03-01 02:42:00,22.0,21.0,-100.00,West,280,4.0,11.0,93,0.00,,,-99.99,,2013-03-01 09:42:00,
2013-03-01 02:52:00,22.0,21.0,-100.00,WNW,300,7.0,12.0,94,0.00,,,-99.99,,2013-03-01 09:52:00,
2013-03-01 03:02:00,22.0,21.0,-100.00,WNW,290,4.0,9.0,94,0.00,,,-99.99,,2013-03-01 10:02:00,
2013-03-01 03:11:00,22.0,21.0,-100.00,NW,310,4.0,6.0,94,0.00,,,-99.99,,2013-03-01 10:11:00,
2013-03-01 03:21:00,22.0,21.0,-100.00,WNW,285,3.0,7.0,94,0.00,,,-99.99,,2013-03-01 10:21:00,
2013-03-01 03:32:00,22.0,21.0,-100.00,NW,310,3.0,5.0,94,0.00,,,-99.99,,2013-03-01 10:32:00,
2013-03-01 03:42:00,22.0,21.0,-100.00,NW,305,2.0,6.0,94,0.00,,,-99.99,,2013-03-01 10:42:00,
2013-03-01 03:52:00,22.0,21.0,-100.00,NW,305,4.0,6.0,94,0.00,,,-99.99,,2013-03-01 10:52:00,
2013-03-01 04:01:00,22.0,21.0,-100.00,NW,305,6.0,11.0,95,0.00,,,-99.99,,2013-03-01 11:01:00,
2013-03-01 04:11:00,22.0,21.0,-100.00,WNW,290,6.0,10.0,95,0.10,,,-99.99,,2013-03-01 11:11:00,
2013-03-01 04:22:00,22.0,21.0,-100.00,WNW,290,7.0,11.0,96,0.00,,,-99.99,,2013-03-01 11:22:00,
2013-03-01 04:32:00,22.0,21.0,-100.00,WNW,295,6.0,9.0,96,0.00,,,-99.99,,2013-03-01 11:32:00,
2013-03-01 04:42:00,22.0,21.0,-100.00,NW,310,4.0,9.0,96,0.00,,,-99.99,,2013-03-01 11:42:00,
2013-03-01 04:52:00,22.0,21.0,-100.00,WNW,295,6.0,7.0,96,0.00,,,-99.99,,2013-03-01 11:52:00,
2013-03-01 05:01:00,22.0,21.0,-100.00,WNW,295,7.0,9.0,96,0.00,,,-99.99,,2013-03-01 12:01:00,
2013-03-01 05:11:00,22.0,21.0,-100.00,NW,315,7.0,11.0,96,0.00,,,-99.99,,2013-03-01 12:11:00,
2013-03-01 05:21:00,22.0,21.0,-100.00,NW,305,5.0,9.0,96,0.00,,,-99.99,,2013-03-01 12:21:00,
2013-03-01 05:32:00,22.0,21.0,-100.00,WNW,300,6.0,9.0,96,0.00,,,-99.99,,2013-03-01 12:32:00,
2013-03-01 05:42:00,22.0,22.0,-100.00,WNW,290,5.0,7.0,97,0.00,,,-99.99,,2013-03-01 12:42:00,
2013-03-01 05:52:00,22.0,22.0,-100.00,NW,305,5.0,7.0,97,0.00,,,-99.99,,2013-03-01 12:52:00,
2013-03-01 06:01:00,22.0,22.0,-100.00,NW,310,6.0,8.0,97,0.00,,,-99.99,,2013-03-01 13:01:00,
2013-03-01 06:11:00,22.0,21.0,-100.00,NW,310,4.0,5.0,97,0.00,,,-99.99,,2013-03-01 13:11:00,
2013-03-01 06:21:00,22.0,21.0,-100.00,WNW,295,4.0,6.0,97,0.00,,,-99.99,,2013-03-01 13:21:00,
2013-03-01 06:32:00,22.0,22.0,-100.00,WNW,300,4.0,6.0,98,0.00,,,-99.99,,2013-03-01 13:32:00,
2013-03-01 06:42:00,22.0,22.0,-100.00,NW,305,4.0,6.0,98,0.00,,,-99.99,,2013-03-01 13:42:00,
2013-03-01 06:51:00,22.0,22.0,-100.00,NW,305,5.0,8.0,98,0.00,,,-99.99,,2013-03-01 13:51:00,
2013-03-01 07:01:00,22.0,22.0,-100.00,NW,310,4.0,7.0,98,0.00,,,-99.99,,2013-03-01 14:01:00,
2013-03-01 07:11:00,22.0,22.0,-100.00,NW,320,4.0,7.0,98,0.00,,,-99.99,,2013-03-01 14:11:00,
2013-03-01 07:21:00,22.0,22.0,-100.00,NNW,330,6.0,7.0,98,0.00,,,-99.99,,2013-03-01 14:21:00,
2013-03-01 07:32:00,22.0,22.0,-100.00,NNW,345,4.0,8.0,98,0.00,,,-99.99,,2013-03-01 14:32:00,
2013-03-01 07:42:00,22.0,22.0,-100.00,West,275,4.0,6.0,98,0.00,,,-99.99,,2013-03-01 14:42:00,
2013-03-01 07:52:00,23.0,22.0,-100.00,WNW,285,4.0,7.0,98,0.00,,,-99.99,,2013-03-01 14:52:00,
2013-03-01 08:01:00,23.0,23.0,-100.00,West,280,4.0,6.0,98,0.00,,,-99.99,,2013-03-01 15:01:00,
2013-03-01 08:11:00,23.0,23.0,-100.00,WNW,295,4.0,6.0,98,0.00,,,-99.99,,2013-03-01 15:11:00,
2013-03-01 08:21:00,23.0,23.0,-100.00,WNW,295,4.0,6.0,98,0.00,,,-99.99,,2013-03-01 15:21:00,
2013-03-01 08:31:00,24.0,23.0,-100.00,WNW,285,6.0,7.0,98,0.00,,,-99.99,,2013-03-01 15:31:00,
2013-03-01 08:42:00,24.0,23.0,-100.00,WNW,295,5.0,7.0,98,0.00,,,-99.99,,2013-03-01 15:42:00,
2013-03-01 08:52:00,24.0,24.0,-100.00,WNW,290,6.0,7.0,98,0.00,,,-99.99,,2013-03-01 15:52:00,
2013-03-01 09:01:00,24.0,24.0,-100.00,WNW,285,6.0,7.0,98,0.00,,,-99.99,,2013-03-01 16:01:00,
2013-03-01 09:11:00,24.0,24.0,-100.00,WNW,290,4.0,7.0,98,0.00,,,-99.99,,2013-03-01 16:11:00,
2013-03-01 09:21:00,25.0,24.0,-100.00,WNW,285,4.0,9.0,98,0.00,,,-99.99,,2013-03-01 16:21:00,
2013-03-01 09:32:00,25.0,25.0,-100.00,WNW,285,7.0,9.0,98,0.00,,,-99.99,,2013-03-01 16:32:00,
2013-03-01 09:42:00,25.0,25.0,-100.00,WNW,290,3.0,7.0,98,0.00,,,-99.99,,2013-03-01 16:42:00,
2013-03-01 09:51:00,25.0,25.0,-100.00,WNW,290,9.0,11.0,98,0.00,,,-99.99,,2013-03-01 16:51:00,
2013-03-01 10:01:00,26.0,25.0,-100.00,WNW,285,6.0,11.0,98,0.00,,,-99.99,,2013-03-01 17:01:00,
2013-03-01 10:11:00,26.0,26.0,-100.00,WNW,300,5.0,11.0,98,0.00,,,-99.99,,2013-03-01 17:11:00,
2013-03-01 10:21:00,26.0,26.0,-100.00,North,350,3.0,8.0,98,0.00,,,-99.99,,2013-03-01 17:21:00,
2013-03-01 10:32:00,27.0,27.0,-100.00,WNW,300,6.0,7.0,98,0.00,,,-99.99,,2013-03-01 17:32:00,
2013-03-01 10:41:00,27.0,27.0,-100.00,West,260,4.0,7.0,98,0.00,,,-99.99,,2013-03-01 17:41:00,
2013-03-01 10:52:00,28.0,28.0,-100.00,North,10,3.0,8.0,98,0.00,,,-99.99,,2013-03-01 17:52:00,
2013-03-01 11:01:00,27.0,27.0,-100.00,WNW,285,7.0,11.0,98,0.00,,,-99.99,,2013-03-01 18:01:00,
2013-03-01 11:12:00,28.0,27.0,-100.00,WNW,285,4.0,11.0,98,0.00,,,-99.99,,2013-03-01 18:12:00,
2013-03-01 11:22:00,29.0,28.0,-100.00,WNW,295,4.0,8.0,98,0.00,,,-99.99,,2013-03-01 18:22:00,
2013-03-01 11:31:00,29.0,29.0,-100.00,NW,315,7.0,9.0,98,0.00,,,-99.99,,2013-03-01 18:31:00,
2013-03-01 11:42:00,29.0,29.0,-100.00,NW,310,9.0,14.0,97,0.00,,,-99.99,,2013-03-01 18:42:00,
2013-03-01 11:52:00,29.0,28.0,-100.00,WNW,295,9.0,17.0,95,0.00,,,-99.99,,2013-03-01 18:52:00,
2013-03-01 12:01:00,30.0,28.0,-100.00,WNW,295,12.0,14.0,92,0.00,,,-99.99,,2013-03-01 19:01:00,
2013-03-01 12:11:00,31.0,28.0,-100.00,WNW,295,12.0,17.0,89,0.00,,,-99.99,,2013-03-01 19:11:00,
2013-03-01 12:21:00,31.0,28.0,-100.00,WNW,290,11.0,16.0,86,0.00,,,-99.99,,2013-03-01 19:21:00,
2013-03-01 12:32:00,31.0,28.0,-100.00,North,-999,-999.0,-999.0,85,0.00,,,-99.99,,2013-03-01 19:32:00,
2013-03-01 12:42:00,31.0,27.0,-100.00,WNW,285,9.0,15.0,84,0.00,,,-99.99,,2013-03-01 19:42:00,
2013-03-01 12:51:00,31.0,27.0,-100.00,WNW,285,9.0,15.0,82,0.00,,,-99.99,,2013-03-01 19:51:00,
2013-03-01 13:01:00,32.0,27.0,-100.00,West,280,9.0,13.0,81,0.00,,,-99.99,,2013-03-01 20:01:00,
2013-03-01 13:11:00,32.0,26.0,-100.00,WNW,295,11.0,16.0,78,0.00,,,-99.99,,2013-03-01 20:11:00,
2013-03-01 13:21:00,32.0,26.0,-100.00,West,280,11.0,15.0,76,0.00,,,-99.99,,2013-03-01 20:21:00,
2013-03-01 13:31:00,33.0,25.0,-100.00,West,280,11.0,14.0,74,0.00,,,-99.99,,2013-03-01 20:31:00,
2013-03-01 13:42:00,33.0,25.0,-100.00,WNW,290,12.0,17.0,72,0.00,,,-99.99,,2013-03-01 20:42:00,
2013-03-01 13:52:00,33.0,25.0,-100.00,WNW,295,12.0,17.0,70,0.00,,,-99.99,,2013-03-01 20:52:00,
2013-03-01 14:01:00,34.0,25.0,-100.00,West,275,11.0,16.0,70,0.00,,,-99.99,,2013-03-01 21:01:00,
2013-03-01 14:11:00,34.0,24.0,-100.00,WNW,285,15.0,21.0,68,0.00,,,-99.99,,2013-03-01 21:11:00,
2013-03-01 14:21:00,34.0,25.0,-100.00,WNW,295,11.0,17.0,67,0.00,,,-99.99,,2013-03-01 21:21:00,
2013-03-01 14:32:00,35.0,25.0,-100.00,WNW,295,11.0,15.0,67,0.00,,,-99.99,,2013-03-01 21:32:00,
2013-03-01 14:42:00,35.0,25.0,-100.00,West,275,11.0,17.0,66,0.00,,,-99.99,,2013-03-01 21:42:00,
2013-03-01 14:51:00,35.0,25.0,-100.00,WNW,285,11.0,15.0,66,0.00,,,-99.99,,2013-03-01 21:51:00,
2013-03-01 15:01:00,35.0,25.0,-100.00,WNW,285,11.0,15.0,66,0.00,,,-99.99,,2013-03-01 22:01:00,
2013-03-01 15:11:00,35.0,24.0,-100.00,WNW,290,14.0,18.0,65,0.00,,,-99.99,,2013-03-01 22:11:00,
2013-03-01 15:21:00,35.0,24.0,-100.00,WNW,290,10.0,16.0,64,0.00,,,-99.99,,2013-03-01 22:21:00,
2013-03-01 15:31:00,35.0,24.0,-100.00,West,280,10.0,16.0,64,0.00,,,-99.99,,2013-03-01 22:31:00,
2013-03-01 15:42:00,35.0,24.0,-100.00,West,275,9.0,14.0,64,0.00,,,-99.99,,2013-03-01 22:42:00,
2013-03-01 15:51:00,35.0,24.0,-100.00,WNW,290,16.0,20.0,64,0.00,,,-99.99,,2013-03-01 22:51:00,
2013-03-01 16:01:00,34.0,24.0,-100.00,WNW,295,17.0,20.0,65,0.00,,,-99.99,,2013-03-01 23:01:00,
2013-03-01 16:11:00,34.0,24.0,-100.00,WNW,285,7.0,19.0,66,0.00,,,-99.99,,2013-03-01 23:11:00,
2013-03-01 16:21:00,35.0,24.0,-100.00,West,275,9.0,17.0,65,0.00,,,-99.99,,2013-03-01 23:21:00,
2013-03-01 16:31:00,35.0,25.0,-100.00,West,275,2.0,15.0,65,0.00,,,-99.99,,2013-03-01 23:31:00,
2013-03-01 16:41:00,35.0,24.0,-100.00,WNW,300,10.0,14.0,63,0.00,,,-99.99,,2013-03-01 23:41:00,
2013-03-01 16:52:00,35.0,24.0,-100.00,West,280,11.0,16.0,63,0.00,,,-99.99,,2013-03-01 23:52:00,
2013-03-01 17:02:00,35.0,24.0,-100.00,WNW,285,10.0,18.0,63,0.00,,,-99.99,,2013-03-02 00:02:00,
2013-03-01 17:11:00,35.0,24.0,-100.00,WNW,285,6.0,17.0,62,0.00,,,-99.99,,2013-03-02 00:11:00,
2013-03-01 17:21:00,35.0,24.0,-100.00,West,280,9.0,17.0,62,0.00,,,-99.99,,2013-03-02 00:21:00,
2013-03-01 17:32:00,35.0,24.0,-100.00,West,280,8.0,17.0,62,0.00,,,-99.99,,2013-03-02 00:32:00,
2013-03-01 17:42:00,35.0,24.0,-100.00,WNW,295,11.0,23.0,62,0.00,,,-99.99,,2013-03-02 00:42:00,
2013-03-01 17:52:00,35.0,23.0,-100.00,WNW,295,12.0,16.0,62,0.00,,,-99.99,,2013-03-02 00:52:00,
2013-03-01 18:01:00,34.0,23.0,-100.00,West,280,14.0,21.0,63,0.00,,,-99.99,,2013-03-02 01:01:00,
2013-03-01 18:11:00,34.0,23.0,-100.00,WNW,295,9.0,19.0,63,0.00,,,-99.99,,2013-03-02 01:11:00,
2013-03-01 18:21:00,34.0,24.0,-100.00,WNW,285,9.0,13.0,64,0.00,,,-99.99,,2013-03-02 01:21:00,
2013-03-01 18:31:00,34.0,24.0,-100.00,WNW,290,9.0,14.0,66,0.00,,,-99.99,,2013-03-02 01:31:00,
2013-03-01 18:41:00,34.0,24.0,-100.00,West,280,7.0,11.0,66,0.00,,,-99.99,,2013-03-02 01:41:00,
2013-03-01 18:51:00,33.0,24.0,-100.00,NW,305,9.0,12.0,68,0.00,,,-99.99,,2013-03-02 01:51:00,
2013-03-01 19:01:00,33.0,24.0,-100.00,WNW,295,10.0,12.0,69,0.00,,,-99.99,,2013-03-02 02:01:00,
2013-03-01 19:11:00,33.0,25.0,-100.00,WNW,285,8.0,12.0,70,0.00,,,-99.99,,2013-03-02 02:11:00,
2013-03-01 19:21:00,33.0,25.0,-100.00,NW,325,3.0,11.0,72,0.00,,,-99.99,,2013-03-02 02:21:00,
2013-03-01 19:32:00,33.0,25.0,-100.00,WNW,295,6.0,9.0,72,0.00,,,-99.99,,2013-03-02 02:32:00,
2013-03-01 19:42:00,33.0,25.0,-100.00,West,280,4.0,10.0,72,0.00,,,-99.99,,2013-03-02 02:42:00,
2013-03-01 19:52:00,32.0,24.0,-100.00,West,270,6.0,7.0,73,0.00,,,-99.99,,2013-03-02 02:52:00,
2013-03-01 20:01:00,32.0,25.0,-100.00,West,265,4.0,6.0,73,0.00,,,-99.99,,2013-03-02 03:01:00,
2013-03-01 20:11:00,32.0,24.0,-100.00,WNW,285,1.0,4.0,74,0.00,,,-99.99,,2013-03-02 03:11:00,
2013-03-01 20:21:00,32.0,25.0,-100.00,WNW,285,3.0,4.0,74,0.00,,,-99.99,,2013-03-02 03:21:00,
2013-03-01 20:32:00,32.0,25.0,-100.00,WNW,295,0.0,4.0,74,0.00,,,-99.99,,2013-03-02 03:32:00,
2013-03-01 20:42:00,31.0,25.0,-100.00,WSW,255,2.0,4.0,75,0.00,,,-99.99,,2013-03-02 03:42:00,
2013-03-01 20:52:00,31.0,24.0,-100.00,SW,225,1.0,4.0,76,0.00,,,-99.99,,2013-03-02 03:52:00,
2013-03-01 21:01:00,31.0,24.0,-100.00,SW,235,0.0,2.0,76,0.00,,,-99.99,,2013-03-02 04:01:00,
2013-03-01 21:11:00,30.0,24.0,-100.00,West,270,1.0,2.0,77,0.00,,,-99.99,,2013-03-02 04:11:00,
2013-03-01 21:21:00,30.0,24.0,-100.00,West,265,0.0,1.0,78,0.00,,,-99.99,,2013-03-02 04:21:00,
2013-03-01 21:32:00,30.0,24.0,-100.00,NE,40,0.0,1.0,78,0.00,,,-99.99,,2013-03-02 04:32:00,
2013-03-01 21:42:00,30.0,25.0,-100.00,NE,40,0.0,0.0,80,0.00,,,-99.99,,2013-03-02 04:42:00,
2013-03-01 21:51:00,30.0,25.0,-100.00,East,100,1.0,2.0,80,0.00,,,-99.99,,2013-03-02 04:51:00,
2013-03-01 22:01:00,30.0,25.0,-100.00,ESE,120,1.0,3.0,81,0.00,,,-99.99,,2013-03-02 05:01:00,
2013-03-01 22:12:00,30.0,25.0,-100.00,East,95,2.0,2.0,82,0.00,,,-99.99,,2013-03-02 05:12:00,
2013-03-01 22:22:00,30.0,25.0,-100.00,East,95,2.0,2.0,82,0.00,,,-99.99,,2013-03-02 05:22:00,
2013-03-01 22:32:00,29.0,25.0,-100.00,SE,140,2.0,4.0,83,0.00,,,-99.99,,2013-03-02 05:32:00,
2013-03-01 22:42:00,29.0,25.0,-100.00,SE,125,1.0,4.0,83,0.00,,,-99.99,,2013-03-02 05:42:00,
2013-03-01 22:52:00,29.0,25.0,-100.00,SE,140,1.0,2.0,84,0.00,,,-99.99,,2013-03-02 05:52:00,
2013-03-01 23:01:00,29.0,25.0,-100.00,SE,135,0.0,3.0,84,0.00,,,-99.99,,2013-03-02 06:01:00,
2013-03-01 23:11:00,29.0,25.0,-100.00,ESE,110,1.0,2.0,84,0.00,,,-99.99,,2013-03-02 06:11:00,
2013-03-01 23:21:00,29.0,26.0,-100.00,ESE,105,2.0,4.0,85,0.00,,,-99.99,,2013-03-02 06:21:00,
2013-03-01 23:31:00,29.0,26.0,-100.00,SE,125,4.0,4.0,86,0.00,,,-99.99,,2013-03-02 06:31:00,
2013-03-01 23:42:00,29.0,26.0,-100.00,ESE,110,2.0,4.0,86,0.00,,,-99.99,,2013-03-02 06:42:00,
2013-03-01 23:51:00,29.0,26.0,-100.00,East,80,4.0,5.0,86,0.00,,,-99.99,,2013-03-02 06:51:00,